Location: Park Creek Village Mobile Home Park
(38.2885°N, 122.4714°W)
Time: 00:50:12
(UTC+00:00)

Cosmos 2266 Rocket - Pass Details

Date: 14 December 2019
Orbit: 933 x 1009 km, 82.9° (Epoch: 19 January)

Event Time Altitude Azimuth Distance (km) Brightness Sun altitude
Rises 14:26:39 0° 349° (N) 3,667 6.7 -10.1°
Reaches altitude 10° 14:29:12 10° 347° (NNW) 2,706 6.0 -9.6°
Maximum altitude 14:35:17 65° 267° (W) 1,041 4.0 -8.5°
Drops below altitude 10° 14:41:15 10° 187° (S) 2,646 6.5 -7.4°
Sets 14:43:43 0° 184° (S) 3,580 7.2 -7.0°
